DECAYED

STARLINK-6284, 56403 (Decayed)

Orbit data source: Space-Track

STARLINK-6284, 56403 was a payload satellite owned by SpaceX/Seattle (US) in LEO that was launched on Thu, 04 May 2023 UTC via an FALCON 9 launch vehicle from the Air Force Eastern Test Range (AFETR). Payload-class satellites include a variety of spacecraft equipped with specific instruments for various scientific and technological missions. These include communications satellites like Starlink; space stations such as the ISS; scientific satellites like the Hubble; Earth observation satellites from companies like Planet Labs, Umbra, and HawkEye 360; GPS; miniature CubeSats for education and research; and military/defense satellites.

Not visible in the next 10 days
Identifier
56403, 2023-061AF
Orbit
Decayed
Country
Flag of USUS
Related business
Manufacturer
SpaceX/Seattle
Mission
Decayed Commercial Communications
Bus & Motor
STARLINK, Unknown motor
Mass
305 kg wet, ~290 kg dry
Launch date (UTC)
2023-05-04 (3 years ago)
Launch vehicle
FALCON 9
Launch site
Air Force Eastern Test Range (AFETR)
Object type
Payload
Rocket body
Debris
Shape & HBR
Box + 1 Pan, 10.1 m
Radar Cross Section
11.087 m², Large (>1 m²)

Expand to show TLE details & history
Last TLE update: 4 months ago

TLE from 4 months ago
0 STARLINK-6284
1 56403U 23061AF  26063.53026328  .08801110  93534-5  51907-3 0  9999
2 56403  42.9891 168.5981 0003324 285.4154  74.6372 16.41465209156630
Epoch: 2026-03-04T12:43Z
TLE epoch observation values (Epoch: 2026-03-04T12:43:34.747Z)
Latitude
-0.00001°
Longitude
175.40966°
Altitude
161.096 km
Speed
7.812 km/s
True Right ascension
11h 14m 23s
True Declination
0° 00' 00"
Sunlit
Object was in full shadow at epoch
Visualization orbit readout
Latitude
Unknown
Longitude
Unknown
Altitude
Unknown
Speed
Unknown
Apparent Right ascension
Unknown
Apparent Declination
Unknown
Sunlit
N/A
Visualization observer readout
Local Sidereal Time
21:36:24
Azimuth
Unknown
Elevation
Unknown
Doppler factor
Unknown
Orbital elements
Apogee altitude
166.125 km
Perigee altitude
161.775 km
Semi-major axis
6,542.087 km
Eccentricity
0.00033
Inclination
42.9891°
RAAN
168.5981°
Arg. of periapsis
285.4154°
True anomaly
74.67393°
Mean anomaly
74.6372°
Eccentric anomaly
74.65557°
Mean motion
4.10175 °/min
Orbital period
87.77 mins
BSTAR
0.00051907
Loading maneuver chart data...
Computing Atmospheric mass density...
Loading historical data...
Loading historical data...
Loading historical data...
Loading historical data...
Loading historical data...
Loading historical data...
Loading historical data...

Documentation

Showing up to 5 results
|